Dewpoint
51 52 53 52 52 53 54 53 53 53 54 54 53 52 51 52 51 51 52 53 53 54 56 55 55 56 57 58 58 58 58 58 57 57 57 59 57 57 58 57 58 59 59 58 55 53 52 51 53 55 58 60 60 61 62 62 62 62 62 63 63 64 64
52 53 54 54 54 54 52 51 52 51 51 51 51 51 51 51 53 50 50 50 52 53 54 52 53 54 54 54 54 54 54 55 57 57 57 56 56 56 58 57 58 58 58 57 56 55 52 51 51 52 53 55 58 61 61 61 61 62 62 63 63 64 64
53 53 54 54 53 52 50 49 49 49 50 50 50 51 50 50 50 51 51 51 52 53 53 51 51 52 52 53 53 53 52 52 52 54 54 52 51 52 55 57 57 58 56 53 52 54 54 52 50 52 49 45 46 50 58 60 61 61 61 62 63 64 64
53 53 53 53 53 50 49 49 49 49 49 49 50 50 50 52 53 54 52 52 53 54 52 51 52 53 52 51 51 51 51 50 50 50 50 50 50 50 50 51 52 53 50 47 47 49 49 46 46 46 47 45 43 43 46 56 60 61 61 61 62 61 62
52 52 52 52 52 50 49 49 49 49 49 49 48 47 49 51 51 50 51 50 51 51 51 52 51 51 51 51 51 51 50 50 50 50 49 48 48 48 48 48 48 48 48 48 49 49 47 47 46 45 45 44 44 43 43 45 58 59 59 59 62 63 62
52 52 52 52 51 50 51 50 49 49 49 48 47 48 49 49 50 48 49 49 50 51 50 50 50 51 51 52 52 51 51 50 49 49 48 48 48 47 47 48 48 47 48 48 48 47 47 47 46 44 45 45 43 45 44 42 43 43 42 42 48 60 61
52 52 52 52 52 52 51 50 49 49 49 48 48 48 49 50 50 50 50 50 50 50 51 51 51 51 51 51 51 50 50 49 50 49 48 48 48 47 47 46 46 47 47 48 47 47 46 46 44 44 44 45 45 45 44 42 43 41 42 42 42 44 52
52 52 53 53 52 52 51 50 50 50 50 50 49 49 51 51 50 50 49 49 49 50 51 51 52 51 51 51 51 50 49 49 49 50 47 47 47 47 46 46 47 47 47 47 47 48 48 47 46 45 44 41 42 43 44 45 44 42 42 43 42 41 42
54 53 53 53 52 53 51 50 50 50 51 51 50 51 51 50 49 50 50 49 49 49 50 50 50 49 49 49 48 49 49 52 50 49 48 46 46 46 45 45 46 46 47 47 47 47 47 47 47 47 46 43 41 40 43 42 43 43 44 43 43 43 42
53 52 52 53 53 53 52 51 50 51 51 51 51 52 52 50 50 50 49 49 48 49 49 50 50 49 49 50 49 48 48 49 50 47 47 47 46 46 46 44 45 45 47 47 46 48 47 46 47 46 45 44 44 41 41 40 41 42 43 44 42 43 42
53 53 53 53 53 53 53 52 51 51 51 52 52 53 52 51 50 54 49 49 49 49 49 49 49 49 49 49 48 47 47 49 49 48 49 47 47 47 47 45 44 44 45 46 46 48 48 47 45 45 45 46 45 42 41 40 40 43 43 44 44 42 42
53 53 53 53 54 53 52 53 52 52 52 52 52 53 52 51 51 50 50 49 49 49 49 49 49 50 49 49 48 48 48 47 46 46 48 47 48 47 46 46 45 45 46 45 45 45 45 46 46 45 44 45 46 44 43 42 38 42 45 42 44 45 42
55 55 53 52 54 53 52 53 53 52 52 53 51 52 52 51 51 50 50 50 50 49 49 49 48 49 49 49 49 48 47 48 47 46 45 46 48 46 46 45 45 44 44 44 44 44 44 43 47 46 45 45 45 45 45 42 39 40 44 43 44 43 43
54 54 54 52 53 53 52 53 53 52 53 52 51 52 52 52 51 51 50 50 50 50 50 49 48 48 48 47 48 47 48 48 46 45 46 44 47 47 48 47 46 46 45 44 44 44 44 43 41 43 44 43 42 43 42 40 38 40 41 44 44 44 45
53 53 53 52 52 53 53 53 54 54 52 52 51 52 53 52 52 52 51 50 50 50 50 50 49 47 49 47 48 48 47 48 46 46 45 44 44 46 45 46 46 43 45 44 44 43 44 42 39 39 41 42 41 42 43 41 40 40 39 42 43 43 42
55 55 55 54 54 55 55 54 55 53 53 53 52 51 53 53 52 52 52 51 50 50 50 50 50 47 47 48 46 49 47 47 47 47 45 43 44 45 44 45 43 45 47 43 44 44 44 42 42 41 42 42 42 42 43 42 40 39 39 40 43 39 40
55 55 55 55 55 55 55 55 55 54 54 54 53 53 52 53 53 52 52 52 51 50 50 50 50 49 47 48 46 48 48 46 46 47 45 44 45 44 44 45 45 46 46 43 44 44 44 43 43 42 41 41 41 40 42 41 42 39 39 38 40 39 40
53 54 55 56 55 55 55 55 55 54 55 55 55 54 53 53 53 53 52 52 52 51 51 50 50 49 48 48 48 47 48 46 46 47 45 45 47 44 45 44 45 46 44 43 44 43 44 43 42 40 38 37 38 40 40 40 40 39 37 36 38 41 40
54 55 54 54 55 55 55 56 55 54 53 55 55 54 54 54 53 53 52 52 52 52 52 51 50 49 49 49 49 48 48 47 46 47 46 45 47 44 44 45 46 46 43 42 43 44 43 42 40 37 36 37 38 39 39 38 38 37 36 36 36 37 38
55 54 55 54 54 53 53 54 54 55 55 55 55 54 53 53 53 53 53 53 52 52 52 52 51 50 49 49 49 49 48 47 46 47 46 45 46 45 45 45 44 44 42 43 43 42 41 40 38 38 40 39 39 37 37 37 36 33 34 32 34 35 33
53 54 54 54 53 53 54 54 53 53 54 53 53 53 54 54 54 54 54 53 54 53 53 53 53 52 51 50 50 49 49 47 46 47 46 46 45 45 45 44 44 43 43 43 42 42 38 33 36 35 39 39 38 36 36 36 34 33 33 33 33 32 34
48 50 53 54 53 52 53 53 53 52 52 52 53 53 53 53 53 53 53 53 53 53 53 53 53 53 53 53 50 50 49 48 47 46 46 46 44 43 43 43 43 43 45 46 44 41 39 37 31 29 37 39 37 36 35 35 35 34 34 34 33 34 34
45 45 46 47 48 49 52 52 52 52 53 52 52 52 52 52 52 52 53 53 53 53 53 53 53 50 50 53 52 51 50 49 47 47 46 45 44 43 43 43 45 50 48 44 39 37 37 39 39 33 32 35 37 35 34 33 34 34 35 34 33 33 33
45 43 43 43 44 45 47 51 52 52 52 52 51 51 52 52 52 53 53 53 53 53 53 54 49 46 45 47 52 52 51 50 49 47 46 45 43 43 42 42 45 46 43 40 37 36 36 38 39 39 39 39 39 35 34 33 33 34 35 34 34 33 33
45 45 45 45 45 46 47 47 48 50 51 52 52 51 51 52 52 51 52 52 52 53 53 51 47 46 44 44 47 52 52 50 49 48 46 45 43 42 41 43 43 42 37 35 34 35 37 37 37 37 37 37 38 39 39 35 35 33 33 33 33 34 33
44 42 43 44 44 45 45 46 46 46 48 50 50 51 52 50 52 51 51 51 52 52 52 49 46 45 45 44 43 47 51 50 48 47 46 44 43 42 42 43 42 41 39 44 44 36 36 36 37 37 37 38 37 36 35 35 37 37 34 34 34 34 33
38 39 41 41 41 40 40 40 41 42 43 44 47 48 49 50 50 50 51 51 52 51 52 49 46 45 44 43 42 43 50 50 48 47 46 44 43 41 42 42 41 41 42 43 40 37 37 38 38 37 37 36 36 38 38 36 36 36 38 36 34 34 35
38 39 39 39 39 39 39 38 38 39 40 41 42 43 44 46 48 49 49 50 50 50 47 39 41 42 42 42 42 41 47 47 46 46 46 45 44 44 43 44 42 41 41 42 43 40 40 39 39 39 36 36 36 36 36 37 37 37 37 36 36 35 36
39 39 39 38 37 37 38 38 37 39 38 38 39 40 40 43 44 44 46 47 48 46 37 37 38 39 39 39 40 44 44 44 44 44 44 43 44 45 44 42 42 41 42 42 42 39 39 39 39 39 39 37 36 35 36 39 38 37 38 36 36 36 36
39 38 38 36 36 36 37 36 36 39 36 37 37 38 38 39 42 45 44 46 45 37 35 36 37 38 38 39 41 42 42 41 41 40 41 41 41 40 40 38 38 39 40 39 37 35 35 38 37 37 36 35 35 34 35 36 37 36 36 35 35 34 34
39 38 38 36 37 37 38 38 38 39 37 37 37 37 38 41 40 42 43 44 44 40 34 36 38 38 39 39 40 40 39 39 38 39 39 40 40 40 44 47 44 40 37 37 35 36 36 37 34 34 33 32 31 31 31 33 35 35 35 35 34 34 34
39 39 38 38 38 38 39 38 37 39 39 39 39 39 40 39 38 38 40 42 45 38 34 36 37 37 38 38 39 38 37 36 36 37 38 36 35 36 35 40 42 38 36 35 34 34 34 34 32 31 31 29 29 28 29 30 31 31 31 31 31 32 32
39 39 38 38 38 39 39 39 39 39 39 40 40 38 38 36 36 36 37 37 36 34 35 35 36 37 37 37 38 39 37 36 35 33 32 32 34 34 34 34 36 34 33 33 32 33 33 33 31 32 32 28 27 28 29 30 32 30 29 30 30 30 32
36 38 39 38 38 38 39 39 39 40 39 39 38 37 36 35 36 35 34 33 32 32 34 33 35 36 36 37 36 36 34 33 31 30 30 31 32 33 32 33 34 34 33 33 33 33 33 34 34 34 32 30 30 32 33 29 31 34 30 31 32 32 32
38 39 39 39 38 39 39 39 39 40 39 37 37 36 34 34 33 32 32 32 32 32 35 37 35 36 36 36 35 34 33 32 31 29 30 30 32 32 32 32 32 33 33 33 33 33 32 32 33 37 34 32 33 33 31 32 31 30 31 31 30 31 31
37 40 40 39 38 38 39 40 39 38 38 37 37 35 34 32 32 31 30 30 30 31 31 33 35 35 35 34 33 33 33 32 33 32 31 32 33 34 34 32 35 34 33 33 33 32 32 33 34 32 33 33 33 33 33 31 30 30 30 29 30 30 30
39 38 37 37 37 37 37 38 39 40 38 38 37 35 33 32 31 31 30 29 30 30 30 30 33 34 33 33 33 33 33 34 34 35 34 34 34 35 34 35 36 34 34 33 33 33 33 33 32 33 33 33 33 34 31 30 29 30 30 29 29 30 30